Погода в Новой Ине

Россия / Хабаровский край     59°22′40″N   144°52′34″E
темп.,
°C
ветер,
м/с
пор.,
м/с
влажн.,
%
обл.,
%
осадки,
мм/ч
давл.,
гПа
погр.,
м
9 мая, вс
вс901:000ююз11698 0.0 101620
04:00−1ю007226 0.0 101610
07:00+2ююз116310 0.0 1016188
10:00+5ююз325653 0.0 1016590
13:00+5ююз435459 0.0 1015835
16:00+5юз345387 0.0 1016767
19:00+3юз3357100 0.0 1016442
22:00+1юз226981 0.0 1016104
10 мая, пн
пн1001:000зюз1269100 0.0 1016115
04:000зюз117280 0.0 101644
07:00+1зюз225977 0.0 1016264
10:00+4юз325350 0.0 1016664
13:00+5ююз435528 0.0 1016799
16:00+4ююз325824 0.0 1016640
19:00+3юз326656 0.0 1017373
22:00+1юз117885 0.0 101897
11 мая, вт
вт1101:000з117975 0.0 101734
04:00−1зюз118155 0.0 101810
07:00+2юз116338 0.0 1017202
10:00+5ююз225390 0.0 1017494
13:00+6ююз3247100 0.0 1016657
16:00+6ююз32455 0.0 1016600
19:00+3ююз22565 0.0 1016303
22:000ююз117110 0.0 101775
12 мая, ср
ср1201:000зюз11735 0.0 101624
04:00−1зюз117634 0.0 101610
07:00+3ююз115923 0.0 1016164
10:00+5ююз2253100 0.0 1016449
13:00+6ююз3251100 0.0 1015538
16:00+6ююз3355100 0.0 1015521
19:00+4юз2257100 0.0 1016334
22:00+2юз2264100 0.0 101699
13 мая, чт
чт1301:00+1зюз1166100 0.0 101616
04:000зюз116478 0.0 101610
07:00+2юз1155100 0.0 1016187
10:00+5юз2252100 0.0 1015498
13:00+6ююз3348100 0.0 1014653
16:00+5ююз3346100 0.0 1014548
19:00+4ююз2249100 0.0 1014292
22:00+2юз1163100 0.0 101464